FDY9736 PHLU-PHNL

Flight info

Callsign FDY9736
Flight time 0h 22m
Altitude 4500
Route VFR
Aircraft C208/L-SDFGR/G

Departure

Time 2026-04-26 00:20
Airport Kalaupapa Airport (PHLU)

Arrival

Time 2026-04-26 00:42
Airport Daniel K. Inouye International Airport (PHNL)
Time Latitude Longitude Altitude Speed Heading
2026-04-26 00:12 21.20963 -156.97498 28 ft 0 kts 47°
2026-04-26 00:17 21.20967 -156.97500 28 ft 1 kts 298°
2026-04-26 00:17 21.20968 -156.97503 28 ft 0 kts 269°
2026-04-26 00:17 21.20990 -156.97551 29 ft 11 kts 314°
2026-04-26 00:18 21.20979 -156.97616 30 ft 8 kts 245°
2026-04-26 00:18 21.20957 -156.97663 30 ft 6 kts 243°
2026-04-26 00:18 21.20928 -156.97694 30 ft 5 kts 232°
2026-04-26 00:18 21.20937 -156.97697 30 ft 0 kts 39°
2026-04-26 00:19 21.20939 -156.97693 30 ft 0 kts 61°
2026-04-26 00:19 21.21014 -156.97546 30 ft 58 kts 61°
2026-04-26 00:19 21.21270 -156.97062 204 ft 86 kts 54°
2026-04-26 00:20 21.21634 -156.96530 515 ft 90 kts 36°
2026-04-26 00:20 21.22256 -156.96656 709 ft 118 kts 316°
2026-04-26 00:20 21.22392 -156.97581 959 ft 129 kts 264°
2026-04-26 00:20 21.22183 -156.98476 1345 ft 127 kts 259°
2026-04-26 00:21 21.21978 -156.99424 1638 ft 133 kts 257°
2026-04-26 00:21 21.21596 -157.00326 1930 ft 133 kts 250°
2026-04-26 00:21 21.21577 -157.01296 2219 ft 132 kts 282°
2026-04-26 00:21 21.21684 -157.02290 2525 ft 136 kts 278°
2026-04-26 00:22 21.21789 -157.03308 2829 ft 138 kts 279°
2026-04-26 00:22 21.21906 -157.04334 3129 ft 139 kts 280°
2026-04-26 00:22 21.22027 -157.05369 3419 ft 140 kts 281°
2026-04-26 00:22 21.22148 -157.06412 3712 ft 141 kts 280°
2026-04-26 00:23 21.22268 -157.07459 4007 ft 142 kts 280°
2026-04-26 00:23 21.22389 -157.08518 4304 ft 144 kts 278°
2026-04-26 00:23 21.22511 -157.09584 4498 ft 152 kts 279°
2026-04-26 00:23 21.22654 -157.10770 4508 ft 168 kts 278°
2026-04-26 00:24 21.22803 -157.12050 4514 ft 177 kts 279°
2026-04-26 00:24 21.22957 -157.13389 4506 ft 184 kts 278°
2026-04-26 00:24 21.23114 -157.14767 4511 ft 187 kts 278°
2026-04-26 00:24 21.23272 -157.16158 4507 ft 188 kts 279°
2026-04-26 00:25 21.23431 -157.17549 4506 ft 188 kts 279°
2026-04-26 00:25 21.23591 -157.18949 4504 ft 189 kts 279°
2026-04-26 00:25 21.23752 -157.20352 4503 ft 190 kts 278°
2026-04-26 00:25 21.23913 -157.21753 4505 ft 189 kts 278°
2026-04-26 00:26 21.24071 -157.23151 4506 ft 189 kts 279°
2026-04-26 00:26 21.24231 -157.24552 4508 ft 190 kts 279°
2026-04-26 00:26 21.24392 -157.25961 4508 ft 190 kts 279°
2026-04-26 00:26 21.24551 -157.27360 4506 ft 189 kts 279°
2026-04-26 00:27 21.24710 -157.28756 4505 ft 189 kts 279°
2026-04-26 00:27 21.24869 -157.30151 4500 ft 188 kts 279°
2026-04-26 00:27 21.25025 -157.31521 4500 ft 187 kts 279°
2026-04-26 00:27 21.25181 -157.32904 4503 ft 187 kts 279°
2026-04-26 00:28 21.25338 -157.34288 4500 ft 186 kts 279°
2026-04-26 00:28 21.25495 -157.35671 4497 ft 187 kts 279°
2026-04-26 00:28 21.25652 -157.37049 4499 ft 187 kts 279°
2026-04-26 00:28 21.25808 -157.38428 4501 ft 187 kts 280°
2026-04-26 00:29 21.25965 -157.39815 4502 ft 187 kts 279°
2026-04-26 00:29 21.26120 -157.41191 4498 ft 185 kts 280°
2026-04-26 00:29 21.26278 -157.42562 4499 ft 184 kts 279°
2026-04-26 00:29 21.26427 -157.43903 4502 ft 185 kts 279°
2026-04-26 00:30 21.26581 -157.45274 4500 ft 186 kts 279°
2026-04-26 00:30 21.26704 -157.46363 4497 ft 187 kts 279°
2026-04-26 00:31 21.26860 -157.47746 4501 ft 187 kts 280°
2026-04-26 00:31 21.27015 -157.49130 4499 ft 187 kts 280°
2026-04-26 00:31 21.27172 -157.50521 4499 ft 188 kts 279°
2026-04-26 00:31 21.27328 -157.51916 4499 ft 188 kts 279°
2026-04-26 00:32 21.27485 -157.53308 4496 ft 188 kts 279°
2026-04-26 00:32 21.27589 -157.54232 4499 ft 189 kts 279°
2026-04-26 00:32 21.27905 -157.57044 4401 ft 194 kts 279°
2026-04-26 00:33 21.28069 -157.58499 4258 ft 199 kts 279°
2026-04-26 00:33 21.28234 -157.59961 4106 ft 194 kts 280°
2026-04-26 00:33 21.28371 -157.61378 3949 ft 191 kts 272°
2026-04-26 00:33 21.28192 -157.62782 3800 ft 189 kts 261°
2026-04-26 00:34 21.27954 -157.64170 3647 ft 188 kts 261°
2026-04-26 00:34 21.27719 -157.65545 3499 ft 188 kts 261°
2026-04-26 00:34 21.27488 -157.66923 3354 ft 187 kts 261°
2026-04-26 00:34 21.27258 -157.68292 3202 ft 186 kts 261°
2026-04-26 00:35 21.27030 -157.69629 3068 ft 191 kts 262°
2026-04-26 00:35 21.26796 -157.71046 2949 ft 194 kts 262°
2026-04-26 00:35 21.26641 -157.72457 2783 ft 187 kts 273°
2026-04-26 00:35 21.26647 -157.73845 2644 ft 183 kts 275°
2026-04-26 00:36 21.26630 -157.75163 2480 ft 170 kts 277°
2026-04-26 00:36 21.26676 -157.76393 2320 ft 161 kts 278°
2026-04-26 00:36 21.26756 -157.77563 2164 ft 153 kts 286°
2026-04-26 00:36 21.27113 -157.78634 2031 ft 157 kts 302°
2026-04-26 00:37 21.27610 -157.79655 1997 ft 149 kts 306°
2026-04-26 00:37 21.28110 -157.80606 1993 ft 143 kts 304°
2026-04-26 00:37 21.28588 -157.81528 1996 ft 141 kts 307°
2026-04-26 00:37 21.29088 -157.82441 1992 ft 142 kts 309°
2026-04-26 00:38 21.29608 -157.83342 1985 ft 143 kts 310°
2026-04-26 00:38 21.30146 -157.84246 1992 ft 143 kts 308°
2026-04-26 00:38 21.30730 -157.85064 1996 ft 139 kts 320°
2026-04-26 00:38 21.31356 -157.85677 1971 ft 134 kts 327°
2026-04-26 00:39 21.31980 -157.86346 2006 ft 123 kts 323°
2026-04-26 00:39 21.32580 -157.87024 1990 ft 127 kts 324°
2026-04-26 00:39 21.33193 -157.87703 1996 ft 128 kts 324°
2026-04-26 00:39 21.33815 -157.88451 1869 ft 143 kts 308°
2026-04-26 00:40 21.34070 -157.89519 1753 ft 149 kts 282°
2026-04-26 00:40 21.34090 -157.90632 1418 ft 149 kts 277°
2026-04-26 00:40 21.33875 -157.91681 1163 ft 144 kts 243°
2026-04-26 00:40 21.33321 -157.92511 1000 ft 132 kts 230°
2026-04-26 00:41 21.32746 -157.93224 848 ft 120 kts 231°
2026-04-26 00:41 21.32169 -157.93841 627 ft 114 kts 207°
2026-04-26 00:41 21.31526 -157.93805 428 ft 77 kts 127°
2026-04-26 00:41 21.31223 -157.93374 277 ft 70 kts 101°
2026-04-26 00:42 21.31288 -157.92910 124 ft 61 kts 58°
2026-04-26 00:42 21.31519 -157.92540 33 ft 56 kts 56°
2026-04-26 00:42 21.31712 -157.92263 23 ft 38 kts 52°
2026-04-26 00:42 21.31856 -157.92059 23 ft 31 kts 52°
2026-04-26 00:43 21.31973 -157.91890 23 ft 27 kts 53°
2026-04-26 00:43 21.32115 -157.91693 23 ft 42 kts 53°
2026-04-26 00:43 21.32320 -157.91429 23 ft 44 kts 34°
2026-04-26 00:43 21.32522 -157.91338 23 ft 38 kts 12°
2026-04-26 00:44 21.32749 -157.91298 23 ft 24 kts 10°
2026-04-26 00:44 21.32868 -157.91249 24 ft 17 kts 52°
2026-04-26 00:44 21.32935 -157.91156 23 ft 19 kts 52°
2026-04-26 00:44 21.33036 -157.91023 23 ft 17 kts 29°
2026-04-26 00:45 21.33119 -157.91066 23 ft 5 kts 300°
2026-04-26 00:45 21.33115 -157.91079 25 ft 2 kts 227°